THOR AGENA B DEB, 511

Orbit data source: Space-Track

THOR AGENA B DEB, 511 is space debris in LEO originally from a launch on Sat, 29 Sep 1962 UTC launched from the Air Force Western Test Range (AFWTR). Debris objects in space refer to the collection of defunct objects orbiting the Earth. Examples of debris include non-operational satellites, rocket bodies, and fragments generated from explosions, collisions, or faulty payload assembly.

Loading next visibility...
THOR AGENA B DEB details
Identifier
511, 1962-049D
Orbit
LEO
Last TLE update20 hours ago
Origin
Flag of USDRTE (US)
ManufacturerUnknown
MissionSpacecraft
Bus & MotorUnknown
MassUnknown
Launch date (UTC)
1962-09-29 (62 years ago)
Launch vehicleUnknown
Launch site
Air Force Western Test Range (AFWTR)
Object type
Payload
Rocket body
Debris
Shape & HBRUnknown
Radar Cross SectionSmall (<0.1 m²)

Expand to show TLE details & history

TLE from 20 hours ago
0 THOR AGENA B DEB
1   511U 62049D   25037.23666876  .00000125  00000-0  13543-3 0  9996
2   511  80.4311 323.7634 0031371 171.1383 345.4961 13.68482808112210
Epoch: 2025-02-06T05:40Z
Definitive object data (Epoch: 2025-02-06T05:40:48.18Z)
Latitude23.13084°
Longitude-82.16158°
Altitude985.315 km
Speed7.372 km/s
True Right ascension09h 18m 37s
True Declination23° 00' 39"
Sunlit
Object was in full shadow at TLE epoch
Visualization TLE readout
Latitude-52.28069°
Longitude-66.34263°
Altitude1,015.043 km
Speed7.348 km/s
Apparent Right ascension13h 03m 15s
Apparent Declination-53° 17' 43"
Sunlit
Object is in daylight
Visualization observer readout
Local Sidereal Time03:30:23
Azimuth130.693° SE
Elevation-61.836°
Doppler factor1
Orbital elements
Apogee altitude1,025.446 km
Perigee altitude979.14 km
Semi-major axis7,380.43 km
Eccentricity0.0031371
Inclination80.4311°
RAAN323.7634°
Arg. of periapsis171.1383°
True anomaly345.40573°
Mean anomaly345.4961°
Eccentric anomaly345.45095°
Mean motion3.42311 °/min
BSTAR0.00013543
Orbital period105.17 mins
Loading maneuver chart data...
Loading historical data...
Loading historical data...
Loading historical data...
Loading historical data...
Loading historical data...
Loading historical data...
Loading historical data...
Other satellites on launch #49 in the year 1962 (1962-09-29 UTC)

THOR AGENA B DEB Visibility forecast

Observer location: undefined°, undefined

Span
Click to sort rows by Start time (UTC) header in descending order
Start Az.
Max El. time (UTC)
Max El. Az.
Max El.
End time (UTC)
End Az.
11 mins2025-02-07 06:04:09.675Z5.403° NNE2025-02-07 06:09:09.675Z71.283° E35.159°2025-02-07 06:15:09.675Z145.788° SSE
8 mins2025-02-07 07:52:09.675Z311.513° NW2025-02-07 07:55:09.675Z273.384° WNW23.812°2025-02-07 08:00:09.675Z218.475° SW
11 mins2025-02-07 19:38:09.675Z184.018° SSW2025-02-07 19:43:09.675Z84.85° E44.713°2025-02-07 19:49:09.675Z12.402° NNE
5 mins2025-02-07 21:28:09.675Z275.648° WNW2025-02-07 21:30:09.675Z296.342° NW15.112°2025-02-07 21:33:09.675Z326.389° NNW
|